Weather History for Charles City, IA

Change the Weather History Date:

Saturday, October 27, 2012

  Actual Average Record
Temperature  
Mean Temperature 35 °F -  
Max Temperature 42 °F 59 °F 80 °F (1966)
Min Temperature 28 °F 37 °F 19 °F (1997)
Degree Days  
Heating Degree Days 30    
Moisture  
Dew Point 24 °F    
Average Humidity 62    
Maximum Humidity 86    
Minimum Humidity 36    
Precipitation  
Precipitation 0.00 in - - ()
Sea Level Pressure  
Sea Level Pressure 30.34 in    
Wind  
Wind Speed 3 mph (NW)    
Max Wind Speed 7 mph    
Max Gust Speed -    
Visibility 10 miles    
Events      
Averages and records for this station are not official NWS values.
T = Trace of Precipitation, MM = Missing Value Source: NWS Daily Summary

Daily Weather History Graph

Daily Weather History Graph

Search for Another Location

Airport:

Trip Planner

Search our weather history database for the weather conditions in past years. The results will help you decide how hot, cold, wet, or windy it might be!

Date:

Astronomy

Oct. 27, 2012 Rise Set
Actual Time 7:39 AM CDT 6:08 PM CDT
Civil Twilight 7:10 AM CDT 6:37 PM CDT
Nautical Twilight 6:36 AM CDT 7:11 PM CDT
Astronomical Twilight 6:03 AM CDT 7:43 PM CDT
Moon 4:56 PM CDT (10/27) 5:32 AM CDT (10/27)
Length of Visible Light 11h 27m
Length of Day
10h 29m
Waxing Gibbous, 96% of the Moon is Illuminated
Oct 27
Waxing Gibbous
Oct 29
Full
Nov 6
Last Quarter
Nov 13
New
Nov 20
First Quarter

Hourly Weather History & Observations

Time (CDT) Temp. Windchill Dew Point Humidity Pressure Visibility Wind Dir Wind Speed Gust Speed Precip Events Conditions
12:15 AM 32.0 °F 27.5 °F 26.6 °F 80% 30.37 in 10.0 mi West 4.6 mph - N/A   Overcast
12:35 AM 32.0 °F 27.5 °F 26.6 °F 80% 30.37 in 10.0 mi WNW 4.6 mph - N/A   Mostly Cloudy
12:55 AM 32.0 °F 27.5 °F 26.6 °F 80% 30.36 in 10.0 mi WNW 4.6 mph - N/A   Overcast
1:15 AM 33.8 °F 29.6 °F 28.4 °F 81% 30.36 in 10.0 mi NW 4.6 mph - N/A   Overcast
1:35 AM 33.8 °F 29.6 °F 28.4 °F 81% 30.35 in 10.0 mi WNW 4.6 mph - N/A   Overcast
1:55 AM 33.8 °F 29.6 °F 28.4 °F 81% 30.35 in 10.0 mi NW 4.6 mph - N/A   Overcast
2:15 AM 35.6 °F 32.8 °F 28.4 °F 75% 30.35 in 10.0 mi WNW 3.5 mph - N/A   Overcast
2:35 AM 35.6 °F 32.8 °F 28.4 °F 75% 30.36 in 10.0 mi WNW 3.5 mph - N/A   Overcast
2:55 AM 35.6 °F - 28.4 °F 75% 30.35 in 10.0 mi Calm Calm - N/A   Overcast
3:35 AM 35.6 °F 32.8 °F 28.4 °F 75% 30.35 in 10.0 mi WNW 3.5 mph - N/A   Overcast
3:55 AM 35.6 °F 32.8 °F 28.4 °F 75% 30.34 in 10.0 mi WNW 3.5 mph - N/A   Overcast
4:15 AM 33.8 °F 30.8 °F 28.4 °F 81% 30.34 in 10.0 mi West 3.5 mph - N/A   Overcast
4:35 AM 33.8 °F 30.8 °F 28.4 °F 81% 30.35 in 10.0 mi West 3.5 mph - N/A   Overcast
4:55 AM 33.8 °F 30.8 °F 28.4 °F 81% 30.35 in 10.0 mi West 3.5 mph - N/A   Overcast
5:15 AM 33.8 °F 30.8 °F 28.4 °F 81% 30.35 in 10.0 mi WNW 3.5 mph - N/A   Overcast
5:35 AM 33.8 °F - 28.4 °F 81% 30.36 in 10.0 mi Calm Calm - N/A   Overcast
5:55 AM 33.8 °F - 28.4 °F 81% 30.36 in 10.0 mi Calm Calm - N/A   Overcast
6:15 AM 33.8 °F - 28.4 °F 81% 30.36 in 10.0 mi Calm Calm - N/A   Overcast
6:55 AM 33.8 °F - 28.4 °F 81% 30.36 in 10.0 mi Calm Calm - N/A   Scattered Clouds
7:15 AM 32.0 °F - 26.6 °F 80% 30.36 in 10.0 mi Calm Calm - N/A   Clear
7:35 AM 30.2 °F 25.4 °F 26.6 °F 86% 30.37 in 10.0 mi WNW 4.6 mph - N/A   Clear
7:55 AM 28.4 °F 24.6 °F 24.8 °F 86% 30.38 in 10.0 mi NW 3.5 mph - N/A   Clear
8:15 AM 30.2 °F 26.7 °F 26.6 °F 86% 30.38 in 10.0 mi WNW 3.5 mph - N/A   Clear
8:35 AM 32.0 °F - 26.6 °F 80% 30.38 in 10.0 mi Calm Calm - N/A   Clear
8:55 AM 33.8 °F - 28.4 °F 81% 30.39 in 10.0 mi Calm Calm - N/A   Clear
9:15 AM 35.6 °F 31.7 °F 26.6 °F 70% 30.39 in 10.0 mi WNW 4.6 mph - N/A   Clear
9:35 AM 35.6 °F 32.8 °F 26.6 °F 70% 30.39 in 10.0 mi WNW 3.5 mph - N/A   Clear
9:55 AM 37.4 °F 34.9 °F 26.6 °F 65% 30.39 in 10.0 mi North 3.5 mph - N/A   Clear
10:35 AM 37.4 °F - 24.8 °F 60% 30.39 in 10.0 mi Calm Calm - N/A   Clear
10:55 AM 39.2 °F 37.0 °F 21.2 °F 49% 30.39 in 10.0 mi West 3.5 mph - N/A   Clear
11:15 AM 41.0 °F 39.0 °F 21.2 °F 45% 30.39 in 10.0 mi SSW 3.5 mph - N/A   Clear
11:35 AM 39.2 °F 35.9 °F 21.2 °F 49% 30.39 in 10.0 mi SSW 4.6 mph - N/A   Mostly Cloudy
11:55 AM 42.8 °F 39.3 °F 21.2 °F 42% 30.38 in 10.0 mi West 5.8 mph - N/A   Overcast
12:15 PM 41.0 °F 38.0 °F 19.4 °F 42% 30.38 in 10.0 mi North 4.6 mph - N/A   Overcast
12:35 PM 39.2 °F 37.0 °F 19.4 °F 45% 30.37 in 10.0 mi NW 3.5 mph - N/A   Mostly Cloudy
12:55 PM 42.8 °F - 17.6 °F 36% 30.36 in 10.0 mi Calm Calm - N/A   Clear
1:15 PM 41.0 °F 38.0 °F 17.6 °F 39% 30.35 in 10.0 mi NNW 4.6 mph - N/A   Clear
1:35 PM 42.8 °F - 19.4 °F 39% 30.34 in 10.0 mi Calm Calm - N/A   Clear
1:55 PM 42.8 °F 38.6 °F 19.4 °F 39% 30.33 in 10.0 mi North 6.9 mph - N/A   Clear
2:15 PM 42.8 °F - 19.4 °F 39% 30.32 in 10.0 mi Calm Calm - N/A   Clear
2:35 PM 42.8 °F 39.3 °F 21.2 °F 42% 30.32 in 7.0 mi WNW 5.8 mph - N/A   Scattered Clouds
2:55 PM 42.8 °F 40.1 °F 19.4 °F 39% 30.31 in 7.0 mi North 4.6 mph - N/A   Scattered Clouds
3:15 PM 42.8 °F - 19.4 °F 39% 30.31 in 10.0 mi Calm Calm - N/A   Clear
3:35 PM 42.8 °F 39.3 °F 19.4 °F 39% 30.31 in 10.0 mi NNE 5.8 mph - N/A   Clear
3:55 PM 42.8 °F 41.1 °F 19.4 °F 39% 30.31 in 10.0 mi West 3.5 mph - N/A   Clear
4:15 PM 42.8 °F 39.3 °F 21.2 °F 42% 30.31 in 10.0 mi NNE 5.8 mph - N/A   Clear
4:35 PM 42.8 °F 38.6 °F 21.2 °F 42% 30.31 in 10.0 mi NE 6.9 mph - N/A   Clear
4:55 PM 42.8 °F 41.1 °F 21.2 °F 42% 30.31 in 10.0 mi North 3.5 mph - N/A   Clear
5:15 PM 42.8 °F - 21.2 °F 42% 30.30 in 10.0 mi Calm Calm - N/A   Clear
5:35 PM 42.8 °F 41.1 °F 21.2 °F 42% 30.30 in 10.0 mi ENE 3.5 mph - N/A   Clear
5:55 PM 41.0 °F - 23.0 °F 49% 30.30 in 10.0 mi Calm Calm - N/A   Clear
6:15 PM 39.2 °F - 21.2 °F 49% 30.30 in 10.0 mi Calm Calm - N/A   Clear
6:35 PM 39.2 °F - 21.2 °F 49% 30.30 in 10.0 mi Calm Calm - N/A   Clear
6:55 PM 39.2 °F - 21.2 °F 49% 30.31 in 10.0 mi Calm Calm - N/A   Clear
7:15 PM 37.4 °F - 24.8 °F 60% 30.31 in 10.0 mi Calm Calm - N/A   Clear
7:35 PM 39.2 °F - 21.2 °F 49% 30.31 in 10.0 mi Calm Calm - N/A   Clear
7:55 PM 37.4 °F - 26.6 °F 65% 30.31 in 10.0 mi Calm Calm - N/A   Clear
8:15 PM 37.4 °F - 23.0 °F 56% 30.31 in 10.0 mi Calm Calm - N/A   Clear
8:35 PM 37.4 °F - 23.0 °F 56% 30.32 in 10.0 mi Calm Calm - N/A   Clear
8:55 PM 37.4 °F - 23.0 °F 56% 30.32 in 10.0 mi Calm Calm - N/A   Clear
9:15 PM 37.4 °F - 24.8 °F 60% 30.32 in 10.0 mi Calm Calm - N/A   Clear
9:55 PM 35.6 °F - 24.8 °F 65% 30.33 in 10.0 mi Calm Calm - N/A   Clear
10:15 PM 35.6 °F 32.8 °F 24.8 °F 65% 30.33 in 10.0 mi North 3.5 mph - N/A   Clear
10:35 PM 35.6 °F 32.8 °F 24.8 °F 65% 30.33 in 10.0 mi NNE 3.5 mph - N/A   Clear
11:35 PM 33.8 °F 29.6 °F 24.8 °F 70% 30.33 in 10.0 mi NE 4.6 mph - N/A   Clear
11:55 PM 33.8 °F 30.8 °F 24.8 °F 70% 30.34 in 10.0 mi NE 3.5 mph - N/A   Clear